Home > Weather > Oranjestad > Past weeks

Flag for Aruba Weather for the Past 2 Weeks in Oranjestad, Aruba

Now
79 °F

Haze.


Feels Like: 82 °F
Forecast: 79 / 87 °F
Wind: 24 mph from East

Location: Queen Beatrix Airport - Aruba

Current Time: Feb 10, 2016 at 1:57:24 AM

Latest Report: Feb 10, 2016 at 12:00 AM


Visibility: 5 mi

Pressure: 29.95 "Hg

Humidity: 84%

Dew point: 73 °F

Location of OranjestadLocation

Historic Weather in Oranjestad — Graph

°F

Oranjestad Temperature Yesterday

Maximum temperature yesterday: 86 °F (at 11:00 AM)
Minimum temperature yesterday: 79 °F (at 12:00 AM)
Average temperature yesterday: 82 °F

High & Low Weather Summary for the Past Weeks

 TemperatureHumidityPressure
High88 °F (Jan 26, 1:00 PM)84% (Jan 26, 1:00 AM)30.04 "Hg (Jan 26, 1:00 AM)
Low77 °F (Jan 29, 4:00 AM)55% (Jan 30, 2:00 PM)29.80 "Hg (Feb 7, 4:00 PM)
Average81 °F73%29.91 "Hg
* Reported Midnight between Jan 25 and Jan 26 — Midnight between Feb 9 and Feb 10, Oranjestad, Weather by CustomWeather, © 2016

Note: Actual official high and low records may vary slightly from our data, if they occured in-between our weather recording intervals... More about our weather records

Advertising

Oranjestad Weather History for the Previous 24 Hours

 ConditionsComfort  
Time TempWeatherWind HumidityBarometerVisibility
12:00 AM
Wed, Feb 10
79 °FHaze.24 mph84%29.95 "Hg5 mi
11:00 PM
Tue, Feb 9
79 °FHaze.24 mph84%29.95 "Hg5 mi
10:00 PM81 °FHaze.21 mph79%29.95 "Hg5 mi
9:00 PM79 °FPassing clouds.23 mph84%29.92 "Hg5 mi
8:00 PM81 °FPassing clouds.20 mph79%29.89 "Hg5 mi
7:00 PM81 °FPassing clouds.22 mph79%29.89 "Hg5 mi
6:00 PM81 °FPassing clouds.22 mph79%29.89 "Hg5 mi
5:00 PM84 °FPassing clouds.20 mph70%29.89 "HgN/A
4:00 PM84 °FPassing clouds.22 mph70%29.89 "HgN/A
3:00 PM86 °FPassing clouds.21 mph66%29.89 "Hg5 mi
2:00 PM86 °FScattered clouds.22 mph66%29.92 "Hg4 mi
1:00 PM84 °FScattered clouds.21 mph70%29.95 "Hg4 mi
12:00 PM86 °FHaze.20 mph66%29.98 "Hg4 mi
11:00 AM86 °FHaze.22 mph66%29.98 "Hg4 mi
10:00 AM84 °FHaze.22 mph66%30.01 "Hg4 mi
9:00 AM82 °FHaze.22 mph74%29.98 "Hg4 mi
8:00 AM81 °FHaze.17 mph79%29.95 "Hg4 mi
7:00 AM81 °FPassing clouds.15 mph79%29.92 "Hg4 mi
6:00 AM81 °FHaze.18 mph79%29.89 "Hg4 mi
5:00 AM81 °FHaze.16 mph79%29.89 "Hg4 mi
3:00 AM79 °FHaze.16 mph84%29.86 "Hg4 mi
2:00 AM79 °FPassing clouds.18 mph84%29.89 "Hg4 mi
1:00 AM81 °FPassing clouds.17 mph79%29.89 "Hg4 mi
Weather by CustomWeather, © 2016

See weather overviewHow to use our weather pages